owner,sensor,date,latitude,longitude,sea_surface_height_above_sea_level,qcFlag 
COMPS,ioos:station:USF.COMPS:ANC:1,2011-08-01T00:00:00Z,28.1930,-82.7890,-0.557,1111122 
COMPS,ioos:station:USF.COMPS:ANC:1,2011-08-01T00:06:00Z,28.1930,-82.7890,-0.559,1111122 
COMPS,ioos:station:USF.COMPS:ANC:1,2011-08-01T00:12:00Z,28.1930,-82.7890,-0.56,1111122 
COMPS,ioos:station:USF.COMPS:ANC:1,2011-08-01T00:18:00Z,28.1930,-82.7890,-0.558,1111122 
COMPS,ioos:station:USF.COMPS:ANC:1,2011-08-01T00:24:00Z,28.1930,-82.7890,-0.556,1111122 
COMPS,ioos:station:USF.COMPS:ANC:1,2011-08-01T00:30:00Z,28.1930,-82.7890,-0.559,1111122 
COMPS,ioos:station:USF.COMPS:ANC:1,2011-08-01T00:36:00Z,28.1930,-82.7890,-0.556,1111122 
COMPS,ioos:station:USF.COMPS:ANC:1,2011-08-01T00:42:00Z,28.1930,-82.7890,-0.56,1111122 
COMPS,ioos:station:USF.COMPS:ANC:1,2011-08-01T00:48:00Z,28.1930,-82.7890,-0.557,1111122 
COMPS,ioos:station:USF.COMPS:ANC:1,2011-08-01T00:54:00Z,28.1930,-82.7890,-0.552,1111122 
COMPS,ioos:station:USF.COMPS:ANC:1,2011-08-01T01:00:00Z,28.1930,-82.7890,-0.545,1111122 
COMPS,ioos:station:USF.COMPS:ANC:1,2011-08-01T01:06:00Z,28.1930,-82.7890,-0.536,1111122 
COMPS,ioos:station:USF.COMPS:ANC:1,2011-08-01T01:12:00Z,28.1930,-82.7890,-0.509,1111122 
COMPS,ioos:station:USF.COMPS:ANC:1,2011-08-01T01:18:00Z,28.1930,-82.7890,-0.491,1111122 
COMPS,ioos:station:USF.COMPS:ANC:1,2011-08-01T01:24:00Z,28.1930,-82.7890,-0.473,1111122 
COMPS,ioos:station:USF.COMPS:ANC:1,2011-08-01T01:30:00Z,28.1930,-82.7890,-0.456,1111122 
COMPS,ioos:station:USF.COMPS:ANC:1,2011-08-01T01:36:00Z,28.1930,-82.7890,-0.432,1111122 
COMPS,ioos:station:USF.COMPS:ANC:1,2011-08-01T01:42:00Z,28.1930,-82.7890,-0.401,1111122 
COMPS,ioos:station:USF.COMPS:ANC:1,2011-08-01T01:48:00Z,28.1930,-82.7890,-0.374,1111122 
COMPS,ioos:station:USF.COMPS:ANC:1,2011-08-01T01:54:00Z,28.1930,-82.7890,-0.348,1111122 
COMPS,ioos:station:USF.COMPS:ANC:1,2011-08-01T02:00:00Z,28.1930,-82.7890,-0.326,1111122 
COMPS,ioos:station:USF.COMPS:ANC:1,2011-08-01T02:06:00Z,28.1930,-82.7890,-0.305,1111122 
COMPS,ioos:station:USF.COMPS:ANC:1,2011-08-01T02:12:00Z,28.1930,-82.7890,-0.282,1111122 
COMPS,ioos:station:USF.COMPS:ANC:1,2011-08-01T02:18:00Z,28.1930,-82.7890,-0.259,1111122 
COMPS,ioos:station:USF.COMPS:ANC:1,2011-08-01T02:24:00Z,28.1930,-82.7890,-0.235,1111122 
COMPS,ioos:station:USF.COMPS:ANC:1,2011-08-01T02:30:00Z,28.1930,-82.7890,-0.21,1111122 
COMPS,ioos:station:USF.COMPS:ANC:1,2011-08-01T02:36:00Z,28.1930,-82.7890,-0.185,1111122 
COMPS,ioos:station:USF.COMPS:ANC:1,2011-08-01T02:42:00Z,28.1930,-82.7890,-0.166,1111122 
COMPS,ioos:station:USF.COMPS:ANC:1,2011-08-01T02:48:00Z,28.1930,-82.7890,-0.143,1111122 
COMPS,ioos:station:USF.COMPS:ANC:1,2011-08-01T02:54:00Z,28.1930,-82.7890,-0.143,1111122 
COMPS,ioos:station:USF.COMPS:ANC:1,2011-08-01T03:00:00Z,28.1930,-82.7890,-0.095,1111122 
COMPS,ioos:station:USF.COMPS:ANC:1,2011-08-01T03:06:00Z,28.1930,-82.7890,-0.075,1111122 
COMPS,ioos:station:USF.COMPS:ANC:1,2011-08-01T03:12:00Z,28.1930,-82.7890,-0.056,1111122 
COMPS,ioos:station:USF.COMPS:ANC:1,2011-08-01T03:18:00Z,28.1930,-82.7890,-0.034,1111122 
COMPS,ioos:station:USF.COMPS:ANC:1,2011-08-01T03:24:00Z,28.1930,-82.7890,-0.008,1111122 
COMPS,ioos:station:USF.COMPS:ANC:1,2011-08-01T03:30:00Z,28.1930,-82.7890,0.017,1111122 
COMPS,ioos:station:USF.COMPS:ANC:1,2011-08-01T03:36:00Z,28.1930,-82.7890,0.036,1111122 
COMPS,ioos:station:USF.COMPS:ANC:1,2011-08-01T03:42:00Z,28.1930,-82.7890,0.054,1111122 
COMPS,ioos:station:USF.COMPS:ANC:1,2011-08-01T03:48:00Z,28.1930,-82.7890,0.077,1111122 
COMPS,ioos:station:USF.COMPS:ANC:1,2011-08-01T03:54:00Z,28.1930,-82.7890,0.106,1111122 
COMPS,ioos:station:USF.COMPS:ANC:1,2011-08-01T04:00:00Z,28.1930,-82.7890,0.14,1111122 
COMPS,ioos:station:USF.COMPS:ANC:1,2011-08-01T04:06:00Z,28.1930,-82.7890,0.163,1111122 
COMPS,ioos:station:USF.COMPS:ANC:1,2011-08-01T04:12:00Z,28.1930,-82.7890,0.178,1111122 
COMPS,ioos:station:USF.COMPS:ANC:1,2011-08-01T04:18:00Z,28.1930,-82.7890,0.193,1111122 
COMPS,ioos:station:USF.COMPS:ANC:1,2011-08-01T04:24:00Z,28.1930,-82.7890,0.209,1111122 
COMPS,ioos:station:USF.COMPS:ANC:1,2011-08-01T04:30:00Z,28.1930,-82.7890,0.225,1111122 
COMPS,ioos:station:USF.COMPS:ANC:1,2011-08-01T04:36:00Z,28.1930,-82.7890,0.246,1111122 
COMPS,ioos:station:USF.COMPS:ANC:1,2011-08-01T04:42:00Z,28.1930,-82.7890,0.272,1111122 
COMPS,ioos:station:USF.COMPS:ANC:1,2011-08-01T04:48:00Z,28.1930,-82.7890,0.297,1111122 
COMPS,ioos:station:USF.COMPS:ANC:1,2011-08-01T04:54:00Z,28.1930,-82.7890,0.306,1111122 
COMPS,ioos:station:USF.COMPS:ANC:1,2011-08-01T05:00:00Z,28.1930,-82.7890,0.316,1111122 
COMPS,ioos:station:USF.COMPS:ANC:1,2011-08-01T05:06:00Z,28.1930,-82.7890,0.334,1111122 
COMPS,ioos:station:USF.COMPS:ANC:1,2011-08-01T05:12:00Z,28.1930,-82.7890,0.354,1111122 
COMPS,ioos:station:USF.COMPS:ANC:1,2011-08-01T05:18:00Z,28.1930,-82.7890,0.372,1111122 
COMPS,ioos:station:USF.COMPS:ANC:1,2011-08-01T05:24:00Z,28.1930,-82.7890,0.383,1111122 
COMPS,ioos:station:USF.COMPS:ANC:1,2011-08-01T05:30:00Z,28.1930,-82.7890,0.382,1111122 
COMPS,ioos:station:USF.COMPS:ANC:1,2011-08-01T05:36:00Z,28.1930,-82.7890,0.385,1111122 
COMPS,ioos:station:USF.COMPS:ANC:1,2011-08-01T05:42:00Z,28.1930,-82.7890,0.399,1111122 
COMPS,ioos:station:USF.COMPS:ANC:1,2011-08-01T05:48:00Z,28.1930,-82.7890,0.395,1111122 
COMPS,ioos:station:USF.COMPS:ANC:1,2011-08-01T05:54:00Z,28.1930,-82.7890,0.388,1111122 
COMPS,ioos:station:USF.COMPS:ANC:1,2011-08-01T06:00:00Z,28.1930,-82.7890,0.393,1111122 
COMPS,ioos:station:USF.COMPS:ANC:1,2011-08-01T06:06:00Z,28.1930,-82.7890,0.388,1111122 
COMPS,ioos:station:USF.COMPS:ANC:1,2011-08-01T06:12:00Z,28.1930,-82.7890,0.374,1111122 
COMPS,ioos:station:USF.COMPS:ANC:1,2011-08-01T06:18:00Z,28.1930,-82.7890,0.367,1111122 
COMPS,ioos:station:USF.COMPS:ANC:1,2011-08-01T06:24:00Z,28.1930,-82.7890,0.361,1111122 
COMPS,ioos:station:USF.COMPS:ANC:1,2011-08-01T06:30:00Z,28.1930,-82.7890,0.348,1111122 
COMPS,ioos:station:USF.COMPS:ANC:1,2011-08-01T06:36:00Z,28.1930,-82.7890,0.349,1111122 
COMPS,ioos:station:USF.COMPS:ANC:1,2011-08-01T06:42:00Z,28.1930,-82.7890,0.342,1111122 
COMPS,ioos:station:USF.COMPS:ANC:1,2011-08-01T06:48:00Z,28.1930,-82.7890,0.32,1111122 
COMPS,ioos:station:USF.COMPS:ANC:1,2011-08-01T06:54:00Z,28.1930,-82.7890,0.315,1111122 
COMPS,ioos:station:USF.COMPS:ANC:1,2011-08-01T07:00:00Z,28.1930,-82.7890,0.321,1111122 
COMPS,ioos:station:USF.COMPS:ANC:1,2011-08-01T07:06:00Z,28.1930,-82.7890,0.309,1111122 
COMPS,ioos:station:USF.COMPS:ANC:1,2011-08-01T07:12:00Z,28.1930,-82.7890,0.292,1111122 
COMPS,ioos:station:USF.COMPS:ANC:1,2011-08-01T07:18:00Z,28.1930,-82.7890,0.288,1111122 
COMPS,ioos:station:USF.COMPS:ANC:1,2011-08-01T07:24:00Z,28.1930,-82.7890,0.281,1111122 
COMPS,ioos:station:USF.COMPS:ANC:1,2011-08-01T07:30:00Z,28.1930,-82.7890,0.266,1111122 
COMPS,ioos:station:USF.COMPS:ANC:1,2011-08-01T07:36:00Z,28.1930,-82.7890,0.254,1111122 
COMPS,ioos:station:USF.COMPS:ANC:1,2011-08-01T07:42:00Z,28.1930,-82.7890,0.245,1111122 
COMPS,ioos:station:USF.COMPS:ANC:1,2011-08-01T07:48:00Z,28.1930,-82.7890,0.233,1111122 
COMPS,ioos:station:USF.COMPS:ANC:1,2011-08-01T07:54:00Z,28.1930,-82.7890,0.22,1111122 
COMPS,ioos:station:USF.COMPS:ANC:1,2011-08-01T08:00:00Z,28.1930,-82.7890,0.195,1111122 
COMPS,ioos:station:USF.COMPS:ANC:1,2011-08-01T08:06:00Z,28.1930,-82.7890,0.177,1111122 
COMPS,ioos:station:USF.COMPS:ANC:1,2011-08-01T08:12:00Z,28.1930,-82.7890,0.171,1111122 
COMPS,ioos:station:USF.COMPS:ANC:1,2011-08-01T08:18:00Z,28.1930,-82.7890,0.146,1111122 
COMPS,ioos:station:USF.COMPS:ANC:1,2011-08-01T08:24:00Z,28.1930,-82.7890,0.12,1111122 
COMPS,ioos:station:USF.COMPS:ANC:1,2011-08-01T08:30:00Z,28.1930,-82.7890,0.113,1111122 
COMPS,ioos:station:USF.COMPS:ANC:1,2011-08-01T08:36:00Z,28.1930,-82.7890,0.11,1111122 
COMPS,ioos:station:USF.COMPS:ANC:1,2011-08-01T08:42:00Z,28.1930,-82.7890,0.099,1111122 
COMPS,ioos:station:USF.COMPS:ANC:1,2011-08-01T08:48:00Z,28.1930,-82.7890,0.078,1111122 
COMPS,ioos:station:USF.COMPS:ANC:1,2011-08-01T08:54:00Z,28.1930,-82.7890,0.068,1111122 
COMPS,ioos:station:USF.COMPS:ANC:1,2011-08-01T09:00:00Z,28.1930,-82.7890,0.053,1111122 
COMPS,ioos:station:USF.COMPS:ANC:1,2011-08-01T09:06:00Z,28.1930,-82.7890,0.03,1111122 
COMPS,ioos:station:USF.COMPS:ANC:1,2011-08-01T09:12:00Z,28.1930,-82.7890,0.011,1111122 
COMPS,ioos:station:USF.COMPS:ANC:1,2011-08-01T09:18:00Z,28.1930,-82.7890,-0.003,1111122 
COMPS,ioos:station:USF.COMPS:ANC:1,2011-08-01T09:24:00Z,28.1930,-82.7890,-0.015,1111122 
COMPS,ioos:station:USF.COMPS:ANC:1,2011-08-01T09:30:00Z,28.1930,-82.7890,-0.023,1111122 
COMPS,ioos:station:USF.COMPS:ANC:1,2011-08-01T09:36:00Z,28.1930,-82.7890,-0.031,1111122 
COMPS,ioos:station:USF.COMPS:ANC:1,2011-08-01T09:42:00Z,28.1930,-82.7890,-0.044,1111122 
COMPS,ioos:station:USF.COMPS:ANC:1,2011-08-01T09:48:00Z,28.1930,-82.7890,-0.062,1111122 
COMPS,ioos:station:USF.COMPS:ANC:1,2011-08-01T09:54:00Z,28.1930,-82.7890,-0.078,1111122 
COMPS,ioos:station:USF.COMPS:ANC:1,2011-08-01T10:00:00Z,28.1930,-82.7890,-0.093,1111122 
COMPS,ioos:station:USF.COMPS:ANC:1,2011-08-01T10:06:00Z,28.1930,-82.7890,-0.114,1111122 
COMPS,ioos:station:USF.COMPS:ANC:1,2011-08-01T10:12:00Z,28.1930,-82.7890,-0.135,1111122 
COMPS,ioos:station:USF.COMPS:ANC:1,2011-08-01T10:18:00Z,28.1930,-82.7890,-0.153,1111122 
COMPS,ioos:station:USF.COMPS:ANC:1,2011-08-01T10:24:00Z,28.1930,-82.7890,-0.168,1111122 
COMPS,ioos:station:USF.COMPS:ANC:1,2011-08-01T10:30:00Z,28.1930,-82.7890,-0.184,1111122 
COMPS,ioos:station:USF.COMPS:ANC:1,2011-08-01T10:36:00Z,28.1930,-82.7890,-0.198,1111122 
COMPS,ioos:station:USF.COMPS:ANC:1,2011-08-01T10:42:00Z,28.1930,-82.7890,-0.209,1111122 
COMPS,ioos:station:USF.COMPS:ANC:1,2011-08-01T10:48:00Z,28.1930,-82.7890,-0.22,1111122 
COMPS,ioos:station:USF.COMPS:ANC:1,2011-08-01T10:54:00Z,28.1930,-82.7890,-0.227,1111122 
COMPS,ioos:station:USF.COMPS:ANC:1,2011-08-01T11:00:00Z,28.1930,-82.7890,-0.234,1111122 
COMPS,ioos:station:USF.COMPS:ANC:1,2011-08-01T11:06:00Z,28.1930,-82.7890,-0.244,1111122 
COMPS,ioos:station:USF.COMPS:ANC:1,2011-08-01T11:12:00Z,28.1930,-82.7890,-0.252,1111122 
COMPS,ioos:station:USF.COMPS:ANC:1,2011-08-01T11:18:00Z,28.1930,-82.7890,-0.233,1111122 
COMPS,ioos:station:USF.COMPS:ANC:1,2011-08-01T11:24:00Z,28.1930,-82.7890,-0.199,1111122 
COMPS,ioos:station:USF.COMPS:ANC:1,2011-08-01T11:30:00Z,28.1930,-82.7890,-0.194,1111122 
COMPS,ioos:station:USF.COMPS:ANC:1,2011-08-01T11:36:00Z,28.1930,-82.7890,-0.241,1111122 
COMPS,ioos:station:USF.COMPS:ANC:1,2011-08-01T11:42:00Z,28.1930,-82.7890,-0.307,1111122 
COMPS,ioos:station:USF.COMPS:ANC:1,2011-08-01T11:48:00Z,28.1930,-82.7890,-0.348,1111122 
COMPS,ioos:station:USF.COMPS:ANC:1,2011-08-01T11:54:00Z,28.1930,-82.7890,-0.342,1111122 
COMPS,ioos:station:USF.COMPS:ANC:1,2011-08-01T12:00:00Z,28.1930,-82.7890,-0.316,1111122 
COMPS,ioos:station:USF.COMPS:ANC:1,2011-08-01T12:06:00Z,28.1930,-82.7890,-0.301,1111122 
COMPS,ioos:station:USF.COMPS:ANC:1,2011-08-01T12:12:00Z,28.1930,-82.7890,-0.307,1111122 
COMPS,ioos:station:USF.COMPS:ANC:1,2011-08-01T12:18:00Z,28.1930,-82.7890,-0.316,1111122 
COMPS,ioos:station:USF.COMPS:ANC:1,2011-08-01T12:24:00Z,28.1930,-82.7890,-0.309,1111122 
COMPS,ioos:station:USF.COMPS:ANC:1,2011-08-01T12:30:00Z,28.1930,-82.7890,-0.293,1111122 
COMPS,ioos:station:USF.COMPS:ANC:1,2011-08-01T12:36:00Z,28.1930,-82.7890,-0.279,1111122 
COMPS,ioos:station:USF.COMPS:ANC:1,2011-08-01T12:42:00Z,28.1930,-82.7890,-0.257,1111122 
COMPS,ioos:station:USF.COMPS:ANC:1,2011-08-01T12:48:00Z,28.1930,-82.7890,-0.256,1111122 
COMPS,ioos:station:USF.COMPS:ANC:1,2011-08-01T12:54:00Z,28.1930,-82.7890,-0.234,1111122 
COMPS,ioos:station:USF.COMPS:ANC:1,2011-08-01T13:00:00Z,28.1930,-82.7890,-0.212,1111122 
COMPS,ioos:station:USF.COMPS:ANC:1,2011-08-01T13:06:00Z,28.1930,-82.7890,-0.186,1111122 
COMPS,ioos:station:USF.COMPS:ANC:1,2011-08-01T13:12:00Z,28.1930,-82.7890,-0.168,1111122 
COMPS,ioos:station:USF.COMPS:ANC:1,2011-08-01T13:18:00Z,28.1930,-82.7890,-0.143,1111122 
COMPS,ioos:station:USF.COMPS:ANC:1,2011-08-01T13:24:00Z,28.1930,-82.7890,-0.129,1111122 
COMPS,ioos:station:USF.COMPS:ANC:1,2011-08-01T13:30:00Z,28.1930,-82.7890,-0.101,1111122 
COMPS,ioos:station:USF.COMPS:ANC:1,2011-08-01T13:36:00Z,28.1930,-82.7890,-0.081,1111122 
COMPS,ioos:station:USF.COMPS:ANC:1,2011-08-01T13:42:00Z,28.1930,-82.7890,-0.054,1111122 
COMPS,ioos:station:USF.COMPS:ANC:1,2011-08-01T13:48:00Z,28.1930,-82.7890,-0.027,1111122 
COMPS,ioos:station:USF.COMPS:ANC:1,2011-08-01T13:54:00Z,28.1930,-82.7890,-0.004,1111122 
COMPS,ioos:station:USF.COMPS:ANC:1,2011-08-01T14:00:00Z,28.1930,-82.7890,0.024,1111122 
COMPS,ioos:station:USF.COMPS:ANC:1,2011-08-01T14:06:00Z,28.1930,-82.7890,0.047,1111122 
COMPS,ioos:station:USF.COMPS:ANC:1,2011-08-01T14:12:00Z,28.1930,-82.7890,0.072,1111122 
COMPS,ioos:station:USF.COMPS:ANC:1,2011-08-01T14:18:00Z,28.1930,-82.7890,0.096,1111122 
COMPS,ioos:station:USF.COMPS:ANC:1,2011-08-01T14:24:00Z,28.1930,-82.7890,0.115,1111122 
COMPS,ioos:station:USF.COMPS:ANC:1,2011-08-01T14:30:00Z,28.1930,-82.7890,0.131,1111122 
COMPS,ioos:station:USF.COMPS:ANC:1,2011-08-01T14:36:00Z,28.1930,-82.7890,0.159,1111122 
COMPS,ioos:station:USF.COMPS:ANC:1,2011-08-01T14:42:00Z,28.1930,-82.7890,0.187,1111122 
COMPS,ioos:station:USF.COMPS:ANC:1,2011-08-01T14:48:00Z,28.1930,-82.7890,0.216,1111122 
COMPS,ioos:station:USF.COMPS:ANC:1,2011-08-01T14:54:00Z,28.1930,-82.7890,0.244,1111122 
COMPS,ioos:station:USF.COMPS:ANC:1,2011-08-01T15:00:00Z,28.1930,-82.7890,0.269,1111122 
COMPS,ioos:station:USF.COMPS:ANC:1,2011-08-01T15:06:00Z,28.1930,-82.7890,0.293,1111122 
COMPS,ioos:station:USF.COMPS:ANC:1,2011-08-01T15:12:00Z,28.1930,-82.7890,0.308,1111122 
COMPS,ioos:station:USF.COMPS:ANC:1,2011-08-01T15:18:00Z,28.1930,-82.7890,0.329,1111122 
COMPS,ioos:station:USF.COMPS:ANC:1,2011-08-01T15:24:00Z,28.1930,-82.7890,0.352,1111122 
COMPS,ioos:station:USF.COMPS:ANC:1,2011-08-01T15:30:00Z,28.1930,-82.7890,0.373,1111122 
COMPS,ioos:station:USF.COMPS:ANC:1,2011-08-01T15:36:00Z,28.1930,-82.7890,0.399,1111122 
COMPS,ioos:station:USF.COMPS:ANC:1,2011-08-01T15:42:00Z,28.1930,-82.7890,0.433,1111122 
COMPS,ioos:station:USF.COMPS:ANC:1,2011-08-01T15:48:00Z,28.1930,-82.7890,0.455,1111122 
COMPS,ioos:station:USF.COMPS:ANC:1,2011-08-01T15:54:00Z,28.1930,-82.7890,0.473,1111122 
COMPS,ioos:station:USF.COMPS:ANC:1,2011-08-01T16:00:00Z,28.1930,-82.7890,0.495,1111122 
COMPS,ioos:station:USF.COMPS:ANC:1,2011-08-01T16:06:00Z,28.1930,-82.7890,0.512,1111122 
COMPS,ioos:station:USF.COMPS:ANC:1,2011-08-01T16:12:00Z,28.1930,-82.7890,0.533,1111122 
COMPS,ioos:station:USF.COMPS:ANC:1,2011-08-01T16:18:00Z,28.1930,-82.7890,0.552,1111122 
COMPS,ioos:station:USF.COMPS:ANC:1,2011-08-01T16:24:00Z,28.1930,-82.7890,0.563,1111122 
COMPS,ioos:station:USF.COMPS:ANC:1,2011-08-01T16:30:00Z,28.1930,-82.7890,0.567,1111122 
COMPS,ioos:station:USF.COMPS:ANC:1,2011-08-01T16:36:00Z,28.1930,-82.7890,0.586,1111122 
COMPS,ioos:station:USF.COMPS:ANC:1,2011-08-01T16:42:00Z,28.1930,-82.7890,0.596,1111122 
COMPS,ioos:station:USF.COMPS:ANC:1,2011-08-01T16:48:00Z,28.1930,-82.7890,0.612,1111122 
COMPS,ioos:station:USF.COMPS:ANC:1,2011-08-01T16:54:00Z,28.1930,-82.7890,0.629,1111122 
COMPS,ioos:station:USF.COMPS:ANC:1,2011-08-01T17:00:00Z,28.1930,-82.7890,0.632,1111122 
COMPS,ioos:station:USF.COMPS:ANC:1,2011-08-01T17:06:00Z,28.1930,-82.7890,0.632,1111122 
COMPS,ioos:station:USF.COMPS:ANC:1,2011-08-01T17:12:00Z,28.1930,-82.7890,0.65,1111122 
COMPS,ioos:station:USF.COMPS:ANC:1,2011-08-01T17:18:00Z,28.1930,-82.7890,0.656,1111122 
COMPS,ioos:station:USF.COMPS:ANC:1,2011-08-01T17:24:00Z,28.1930,-82.7890,0.652,1111122 
COMPS,ioos:station:USF.COMPS:ANC:1,2011-08-01T17:30:00Z,28.1930,-82.7890,0.647,1111122 
COMPS,ioos:station:USF.COMPS:ANC:1,2011-08-01T17:36:00Z,28.1930,-82.7890,0.645,1111122 
COMPS,ioos:station:USF.COMPS:ANC:1,2011-08-01T17:42:00Z,28.1930,-82.7890,0.652,1111122 
COMPS,ioos:station:USF.COMPS:ANC:1,2011-08-01T17:48:00Z,28.1930,-82.7890,0.662,1111122 
COMPS,ioos:station:USF.COMPS:ANC:1,2011-08-01T17:54:00Z,28.1930,-82.7890,0.668,1111122 
COMPS,ioos:station:USF.COMPS:ANC:1,2011-08-01T18:00:00Z,28.1930,-82.7890,0.658,1111122 
COMPS,ioos:station:USF.COMPS:ANC:1,2011-08-01T18:06:00Z,28.1930,-82.7890,0.638,1111122 
COMPS,ioos:station:USF.COMPS:ANC:1,2011-08-01T18:12:00Z,28.1930,-82.7890,0.631,1111122 
COMPS,ioos:station:USF.COMPS:ANC:1,2011-08-01T18:18:00Z,28.1930,-82.7890,0.628,1111122 
COMPS,ioos:station:USF.COMPS:ANC:1,2011-08-01T18:24:00Z,28.1930,-82.7890,0.629,1111122 
COMPS,ioos:station:USF.COMPS:ANC:1,2011-08-01T18:30:00Z,28.1930,-82.7890,0.609,1111122 
COMPS,ioos:station:USF.COMPS:ANC:1,2011-08-01T18:36:00Z,28.1930,-82.7890,0.596,1111122 
COMPS,ioos:station:USF.COMPS:ANC:1,2011-08-01T18:42:00Z,28.1930,-82.7890,0.597,1111122 
COMPS,ioos:station:USF.COMPS:ANC:1,2011-08-01T18:48:00Z,28.1930,-82.7890,0.58,1111122 
COMPS,ioos:station:USF.COMPS:ANC:1,2011-08-01T18:54:00Z,28.1930,-82.7890,0.556,1111122 
COMPS,ioos:station:USF.COMPS:ANC:1,2011-08-01T19:00:00Z,28.1930,-82.7890,0.559,1111122 
COMPS,ioos:station:USF.COMPS:ANC:1,2011-08-01T19:06:00Z,28.1930,-82.7890,0.552,1111122 
COMPS,ioos:station:USF.COMPS:ANC:1,2011-08-01T19:12:00Z,28.1930,-82.7890,0.537,1111122 
COMPS,ioos:station:USF.COMPS:ANC:1,2011-08-01T19:18:00Z,28.1930,-82.7890,0.531,1111122 
COMPS,ioos:station:USF.COMPS:ANC:1,2011-08-01T19:24:00Z,28.1930,-82.7890,0.524,1111122 
COMPS,ioos:station:USF.COMPS:ANC:1,2011-08-01T19:30:00Z,28.1930,-82.7890,0.497,1111122 
COMPS,ioos:station:USF.COMPS:ANC:1,2011-08-01T19:36:00Z,28.1930,-82.7890,0.473,1111122 
COMPS,ioos:station:USF.COMPS:ANC:1,2011-08-01T19:42:00Z,28.1930,-82.7890,0.462,1111122 
COMPS,ioos:station:USF.COMPS:ANC:1,2011-08-01T19:48:00Z,28.1930,-82.7890,0.447,1111122 
COMPS,ioos:station:USF.COMPS:ANC:1,2011-08-01T19:54:00Z,28.1930,-82.7890,0.419,1111122 
COMPS,ioos:station:USF.COMPS:ANC:1,2011-08-01T20:00:00Z,28.1930,-82.7890,0.396,1111122 
COMPS,ioos:station:USF.COMPS:ANC:1,2011-08-01T20:06:00Z,28.1930,-82.7890,0.382,1111122 
COMPS,ioos:station:USF.COMPS:ANC:1,2011-08-01T20:12:00Z,28.1930,-82.7890,0.359,1111122 
COMPS,ioos:station:USF.COMPS:ANC:1,2011-08-01T20:18:00Z,28.1930,-82.7890,0.33,1111122 
COMPS,ioos:station:USF.COMPS:ANC:1,2011-08-01T20:24:00Z,28.1930,-82.7890,0.299,1111122 
COMPS,ioos:station:USF.COMPS:ANC:1,2011-08-01T20:30:00Z,28.1930,-82.7890,0.273,1111122 
COMPS,ioos:station:USF.COMPS:ANC:1,2011-08-01T20:36:00Z,28.1930,-82.7890,0.253,1111122 
COMPS,ioos:station:USF.COMPS:ANC:1,2011-08-01T20:42:00Z,28.1930,-82.7890,0.236,1111122 
COMPS,ioos:station:USF.COMPS:ANC:1,2011-08-01T20:48:00Z,28.1930,-82.7890,0.217,1111122 
COMPS,ioos:station:USF.COMPS:ANC:1,2011-08-01T20:54:00Z,28.1930,-82.7890,0.187,1111122 
COMPS,ioos:station:USF.COMPS:ANC:1,2011-08-01T21:00:00Z,28.1930,-82.7890,0.161,1111122 
COMPS,ioos:station:USF.COMPS:ANC:1,2011-08-01T21:06:00Z,28.1930,-82.7890,0.148,1111122 
COMPS,ioos:station:USF.COMPS:ANC:1,2011-08-01T21:12:00Z,28.1930,-82.7890,0.127,1111122 
COMPS,ioos:station:USF.COMPS:ANC:1,2011-08-01T21:18:00Z,28.1930,-82.7890,0.098,1111122 
COMPS,ioos:station:USF.COMPS:ANC:1,2011-08-01T21:24:00Z,28.1930,-82.7890,0.075,1111122 
COMPS,ioos:station:USF.COMPS:ANC:1,2011-08-01T21:30:00Z,28.1930,-82.7890,0.057,1111122 
COMPS,ioos:station:USF.COMPS:ANC:1,2011-08-01T21:36:00Z,28.1930,-82.7890,0.033,1111122 
COMPS,ioos:station:USF.COMPS:ANC:1,2011-08-01T21:42:00Z,28.1930,-82.7890,0.01,1111122 
COMPS,ioos:station:USF.COMPS:ANC:1,2011-08-01T21:48:00Z,28.1930,-82.7890,-0.015,1111122 
COMPS,ioos:station:USF.COMPS:ANC:1,2011-08-01T21:54:00Z,28.1930,-82.7890,-0.04,1111122 
COMPS,ioos:station:USF.COMPS:ANC:1,2011-08-01T22:00:00Z,28.1930,-82.7890,-0.067,1111122 
COMPS,ioos:station:USF.COMPS:ANC:1,2011-08-01T22:06:00Z,28.1930,-82.7890,-0.093,1111122 
COMPS,ioos:station:USF.COMPS:ANC:1,2011-08-01T22:12:00Z,28.1930,-82.7890,-0.124,1111122 
COMPS,ioos:station:USF.COMPS:ANC:1,2011-08-01T22:18:00Z,28.1930,-82.7890,-0.154,1111122 
COMPS,ioos:station:USF.COMPS:ANC:1,2011-08-01T22:24:00Z,28.1930,-82.7890,-0.178,1111122 
COMPS,ioos:station:USF.COMPS:ANC:1,2011-08-01T22:30:00Z,28.1930,-82.7890,-0.2,1111122 
COMPS,ioos:station:USF.COMPS:ANC:1,2011-08-01T22:36:00Z,28.1930,-82.7890,-0.227,1111122 
COMPS,ioos:station:USF.COMPS:ANC:1,2011-08-01T22:42:00Z,28.1930,-82.7890,-0.251,1111122 
COMPS,ioos:station:USF.COMPS:ANC:1,2011-08-01T22:48:00Z,28.1930,-82.7890,-0.274,1111122 
COMPS,ioos:station:USF.COMPS:ANC:1,2011-08-01T22:54:00Z,28.1930,-82.7890,-0.297,1111122 
COMPS,ioos:station:USF.COMPS:ANC:1,2011-08-01T23:00:00Z,28.1930,-82.7890,-0.318,1111122 
COMPS,ioos:station:USF.COMPS:ANC:1,2011-08-01T23:06:00Z,28.1930,-82.7890,-0.338,1111122 
COMPS,ioos:station:USF.COMPS:ANC:1,2011-08-01T23:12:00Z,28.1930,-82.7890,-0.355,1111122 
COMPS,ioos:station:USF.COMPS:ANC:1,2011-08-01T23:18:00Z,28.1930,-82.7890,-0.376,1111122 
COMPS,ioos:station:USF.COMPS:ANC:1,2011-08-01T23:24:00Z,28.1930,-82.7890,-0.396,1111122 
COMPS,ioos:station:USF.COMPS:ANC:1,2011-08-01T23:30:00Z,28.1930,-82.7890,-0.409,1111122 
COMPS,ioos:station:USF.COMPS:ANC:1,2011-08-01T23:36:00Z,28.1930,-82.7890,-0.425,1111122 
COMPS,ioos:station:USF.COMPS:ANC:1,2011-08-01T23:42:00Z,28.1930,-82.7890,-0.447,1111122 
COMPS,ioos:station:USF.COMPS:ANC:1,2011-08-01T23:48:00Z,28.1930,-82.7890,-0.467,1111122 
COMPS,ioos:station:USF.COMPS:ANC:1,2011-08-01T23:54:00Z,28.1930,-82.7890,-0.483,1111122 
COMPS,ioos:station:USF.COMPS:ANC:1,2011-08-02T00:00:00Z,28.1930,-82.7890,-0.497,1111122 
COMPS,ioos:station:USF.COMPS:ANC:1,2011-08-02T00:06:00Z,28.1930,-82.7890,-0.512,1111122 
COMPS,ioos:station:USF.COMPS:ANC:1,2011-08-02T00:12:00Z,28.1930,-82.7890,-0.535,1111122 
COMPS,ioos:station:USF.COMPS:ANC:1,2011-08-02T00:18:00Z,28.1930,-82.7890,-0.542,1111122 
COMPS,ioos:station:USF.COMPS:ANC:1,2011-08-02T00:24:00Z,28.1930,-82.7890,-0.543,1111122 
COMPS,ioos:station:USF.COMPS:ANC:1,2011-08-02T00:30:00Z,28.1930,-82.7890,-0.547,1111122 
COMPS,ioos:station:USF.COMPS:ANC:1,2011-08-02T00:36:00Z,28.1930,-82.7890,-0.552,1111122 
COMPS,ioos:station:USF.COMPS:ANC:1,2011-08-02T00:42:00Z,28.1930,-82.7890,-0.556,1111122 
COMPS,ioos:station:USF.COMPS:ANC:1,2011-08-02T00:48:00Z,28.1930,-82.7890,-0.559,1111122 
COMPS,ioos:station:USF.COMPS:ANC:1,2011-08-02T00:54:00Z,28.1930,-82.7890,-0.561,1111122 
COMPS,ioos:station:USF.COMPS:ANC:1,2011-08-02T01:00:00Z,28.1930,-82.7890,-0.561,1111122 
COMPS,ioos:station:USF.COMPS:ANC:1,2011-08-02T01:06:00Z,28.1930,-82.7890,-0.559,1111122 
COMPS,ioos:station:USF.COMPS:ANC:1,2011-08-02T01:12:00Z,28.1930,-82.7890,-0.557,1111122 
COMPS,ioos:station:USF.COMPS:ANC:1,2011-08-02T01:18:00Z,28.1930,-82.7890,-0.554,1111122 
COMPS,ioos:station:USF.COMPS:ANC:1,2011-08-02T01:24:00Z,28.1930,-82.7890,-0.55,1111122 
COMPS,ioos:station:USF.COMPS:ANC:1,2011-08-02T01:30:00Z,28.1930,-82.7890,-0.547,1111122 
COMPS,ioos:station:USF.COMPS:ANC:1,2011-08-02T01:36:00Z,28.1930,-82.7890,-0.542,1111122 
COMPS,ioos:station:USF.COMPS:ANC:1,2011-08-02T01:42:00Z,28.1930,-82.7890,-0.532,1111122 
COMPS,ioos:station:USF.COMPS:ANC:1,2011-08-02T01:48:00Z,28.1930,-82.7890,-0.502,1111122 
COMPS,ioos:station:USF.COMPS:ANC:1,2011-08-02T01:54:00Z,28.1930,-82.7890,-0.484,1111122 
COMPS,ioos:station:USF.COMPS:ANC:1,2011-08-02T02:00:00Z,28.1930,-82.7890,-0.462,1111122 
COMPS,ioos:station:USF.COMPS:ANC:1,2011-08-02T02:06:00Z,28.1930,-82.7890,-0.446,1111122 
COMPS,ioos:station:USF.COMPS:ANC:1,2011-08-02T02:12:00Z,28.1930,-82.7890,-0.432,1111122 
COMPS,ioos:station:USF.COMPS:ANC:1,2011-08-02T02:18:00Z,28.1930,-82.7890,-0.413,1111122 
COMPS,ioos:station:USF.COMPS:ANC:1,2011-08-02T02:24:00Z,28.1930,-82.7890,-0.392,1111122 
COMPS,ioos:station:USF.COMPS:ANC:1,2011-08-02T02:30:00Z,28.1930,-82.7890,-0.363,1111122 
COMPS,ioos:station:USF.COMPS:ANC:1,2011-08-02T02:36:00Z,28.1930,-82.7890,-0.337,1111122 
COMPS,ioos:station:USF.COMPS:ANC:1,2011-08-02T02:42:00Z,28.1930,-82.7890,-0.314,1111122 
COMPS,ioos:station:USF.COMPS:ANC:1,2011-08-02T02:48:00Z,28.1930,-82.7890,-0.297,1111122 
COMPS,ioos:station:USF.COMPS:ANC:1,2011-08-02T02:54:00Z,28.1930,-82.7890,-0.274,1111122 